Weather History for Vinton, IA

Change the Weather History Date:

Monday, November 18, 2013

  Actual Average Record
Temperature  
Mean Temperature 33 °F -  
Max Temperature 41 °F 47 °F 72 °F (1953)
Min Temperature 25 °F 29 °F 7 °F (1989)
Degree Days  
Heating Degree Days 32    
Moisture  
Dew Point 28 °F    
Average Humidity 74    
Maximum Humidity 92    
Minimum Humidity 53    
Precipitation  
Precipitation 0.00 in - - ()
Sea Level Pressure  
Sea Level Pressure 30.12 in    
Wind  
Wind Speed 12 mph (WNW)    
Max Wind Speed 24 mph    
Max Gust Speed 33 mph    
Visibility 10 miles    
Events      
Averages and records for this station are not official NWS values.
T = Trace of Precipitation, MM = Missing Value Source: NWS Daily Summary

Daily Weather History Graph

Daily Weather History Graph

Search for Another Location

Airport:

Trip Planner

Search our weather history database for the weather conditions in past years. The results will help you decide how hot, cold, wet, or windy it might be!

Date:

Astronomy

Nov. 18, 2013 Rise Set
Actual Time 7:02 AM CST 4:43 PM CST
Civil Twilight 6:32 AM CST 5:14 PM CST
Nautical Twilight 5:58 AM CST 5:48 PM CST
Astronomical Twilight 5:24 AM CST 6:21 PM CST
Moon 5:46 PM CST (11/18) 7:51 AM CST (11/18)
Length of Visible Light 10h 42m
Length of Day
9h 41m
Full, 99% of the Moon is Illuminated
Nov 18
Full
Nov 25
Last Quarter
Dec 2
New
Dec 9
First Quarter
Dec 17
Full

Hourly Weather History & Observations

Time (CST) Temp. Windchill Dew Point Humidity Pressure Visibility Wind Dir Wind Speed Gust Speed Precip Events Conditions
12:15 AM 37.2 °F 28.7 °F 31.8 °F 81% 29.89 in 10.0 mi WNW 13.8 mph - N/A   Clear
12:35 AM 36.9 °F 30.1 °F 31.6 °F 81% 29.90 in 10.0 mi WNW 9.2 mph - N/A   Clear
12:55 AM 36.9 °F 29.1 °F 32.0 °F 83% 29.91 in 10.0 mi WNW 11.5 mph - N/A   Scattered Clouds
1:15 AM 36.9 °F 29.6 °F 32.0 °F 83% 29.91 in 10.0 mi WNW 10.4 mph - N/A   Scattered Clouds
1:35 AM 36.9 °F 30.1 °F 32.0 °F 83% 29.92 in 10.0 mi West 9.2 mph - N/A   Overcast
1:55 AM 36.9 °F 30.1 °F 32.0 °F 83% 29.92 in 10.0 mi WNW 9.2 mph - N/A   Mostly Cloudy
2:15 AM 36.9 °F 30.1 °F 32.0 °F 83% 29.92 in 10.0 mi WNW 9.2 mph - N/A   Mostly Cloudy
2:35 AM 36.9 °F 29.6 °F 32.5 °F 84% 29.93 in 10.0 mi West 10.4 mph - N/A   Scattered Clouds
2:55 AM 36.9 °F 28.7 °F 32.4 °F 84% 29.94 in 10.0 mi WNW 12.7 mph - N/A   Mostly Cloudy
3:15 AM 36.9 °F 29.1 °F 32.2 °F 83% 29.94 in 10.0 mi WNW 11.5 mph - N/A   Overcast
3:35 AM 36.9 °F 30.7 °F 32.2 °F 83% 29.95 in 10.0 mi WNW 8.1 mph - N/A   Overcast
3:55 AM 36.9 °F 29.6 °F 32.4 °F 84% 29.95 in 10.0 mi WNW 10.4 mph - N/A   Overcast
4:15 AM 36.9 °F 26.2 °F 30.6 °F 78% 29.96 in 10.0 mi NW 20.7 mph 29.9 mph N/A   Overcast
4:35 AM 36.9 °F 27.1 °F 30.2 °F 77% 29.97 in 10.0 mi NW 17.3 mph 25.3 mph N/A   Overcast
4:55 AM 36.9 °F 27.5 °F 30.2 °F 77% 29.98 in 10.0 mi NW 16.1 mph 27.6 mph N/A   Mostly Cloudy
5:15 AM 35.6 °F 25.5 °F 28.4 °F 75% 29.98 in 10.0 mi NW 17.3 mph 29.9 mph N/A   Scattered Clouds
5:35 AM 34.3 °F 23.9 °F 27.0 °F 74% 29.99 in 10.0 mi NW 17.3 mph 24.2 mph N/A   Scattered Clouds
5:55 AM 34.3 °F 24.2 °F 26.6 °F 73% 30.00 in 10.0 mi NW 16.1 mph 25.3 mph N/A   Mostly Cloudy
6:15 AM 34.3 °F 25.5 °F 27.3 °F 76% 30.01 in 10.0 mi NW 12.7 mph - N/A   Overcast
6:35 AM 34.3 °F 26.5 °F 27.7 °F 77% 30.01 in 10.0 mi WNW 10.4 mph - N/A   Overcast
6:55 AM 34.3 °F 24.6 °F 27.9 °F 77% 30.02 in 10.0 mi WNW 15.0 mph - N/A   Scattered Clouds
7:15 AM 34.3 °F 24.6 °F 27.3 °F 76% 30.03 in 10.0 mi NW 15.0 mph 23.0 mph N/A   Clear
7:35 AM 34.3 °F 23.9 °F 27.1 °F 75% 30.04 in 10.0 mi NW 17.3 mph 23.0 mph N/A   Clear
7:55 AM 34.3 °F 25.5 °F 26.6 °F 73% 30.05 in 10.0 mi NW 12.7 mph 24.2 mph N/A   Clear
8:15 AM 34.3 °F 24.2 °F 27.1 °F 75% 30.06 in 10.0 mi NW 16.1 mph 19.6 mph N/A   Clear
8:35 AM 34.3 °F 24.6 °F 26.4 °F 73% 30.08 in 10.0 mi NW 15.0 mph 23.0 mph N/A   Clear
8:55 AM 34.3 °F 23.9 °F 26.1 °F 72% 30.09 in 10.0 mi NW 17.3 mph 28.8 mph N/A   Scattered Clouds
9:15 AM 34.3 °F 22.0 °F 25.7 °F 71% 30.10 in 10.0 mi WNW 24.2 mph 32.2 mph N/A   Scattered Clouds
9:35 AM 35.6 °F 23.7 °F 26.4 °F 69% 30.11 in 10.0 mi NW 24.2 mph 29.9 mph N/A   Scattered Clouds
9:55 AM 36.9 °F 26.5 °F 27.3 °F 68% 30.12 in 10.0 mi NW 19.6 mph 28.8 mph N/A   Scattered Clouds
10:15 AM 36.9 °F 25.9 °F 26.8 °F 67% 30.14 in 10.0 mi WNW 21.9 mph 28.8 mph N/A   Scattered Clouds
10:35 AM 36.9 °F 26.5 °F 26.2 °F 65% 30.15 in 10.0 mi NW 19.6 mph 33.4 mph N/A   Scattered Clouds
10:55 AM 39.4 °F 29.0 °F 28.4 °F 65% 30.15 in 10.0 mi WNW 23.0 mph 27.6 mph N/A   Scattered Clouds
11:15 AM 39.4 °F 29.5 °F 27.3 °F 62% 30.15 in 10.0 mi WNW 20.7 mph 28.8 mph N/A   Scattered Clouds
11:35 AM 39.4 °F 30.1 °F 28.6 °F 65% 30.15 in 10.0 mi WNW 18.4 mph 23.0 mph N/A   Scattered Clouds
11:55 AM 39.4 °F 30.4 °F 27.7 °F 63% 30.16 in 10.0 mi WNW 17.3 mph 25.3 mph N/A   Clear
12:15 PM 39.4 °F 30.1 °F 27.1 °F 62% 30.16 in 10.0 mi WNW 18.4 mph 27.6 mph N/A   Clear
12:35 PM 39.6 °F 30.0 °F 26.8 °F 60% 30.17 in 10.0 mi NW 19.6 mph 27.6 mph N/A   Clear
12:55 PM 40.1 °F 31.0 °F 27.0 °F 59% 30.16 in 10.0 mi NW 18.4 mph 27.6 mph N/A   Clear
1:15 PM 40.6 °F 31.7 °F 27.0 °F 58% 30.17 in 10.0 mi NW 18.4 mph 27.6 mph N/A   Clear
1:35 PM 40.6 °F 31.7 °F 27.0 °F 58% 30.17 in 10.0 mi NW 18.4 mph 25.3 mph N/A   Clear
1:55 PM 41.2 °F 32.4 °F 26.2 °F 55% 30.18 in 10.0 mi NW 18.4 mph 27.6 mph N/A   Clear
2:15 PM 41.7 °F 33.4 °F 26.8 °F 55% 30.18 in 10.0 mi WNW 17.3 mph 25.3 mph N/A   Clear
2:35 PM 41.9 °F 33.4 °F 26.4 °F 54% 30.18 in 10.0 mi WNW 18.4 mph 25.3 mph N/A   Clear
2:55 PM 41.7 °F 33.4 °F 26.1 °F 54% 30.18 in 10.0 mi WNW 17.3 mph 23.0 mph N/A   Clear
3:15 PM 40.6 °F 32.7 °F 25.7 °F 55% 30.18 in 10.0 mi WNW 15.0 mph 19.6 mph N/A   Clear
3:35 PM 40.6 °F 32.0 °F 24.6 °F 53% 30.19 in 10.0 mi NW 17.3 mph 23.0 mph N/A   Clear
3:55 PM 40.1 °F 34.1 °F 25.7 °F 56% 30.19 in 10.0 mi WNW 9.2 mph - N/A   Clear
4:15 PM 39.4 °F 32.7 °F 25.5 °F 58% 30.20 in 10.0 mi WNW 10.4 mph - N/A   Clear
4:35 PM 39.0 °F 32.8 °F 27.1 °F 62% 30.21 in 10.0 mi WNW 9.2 mph - N/A   Clear
4:55 PM 36.9 °F 31.4 °F 27.3 °F 68% 30.21 in 10.0 mi WNW 6.9 mph - N/A   Clear
5:15 PM 34.3 °F 29.2 °F 26.2 °F 72% 30.21 in 10.0 mi WNW 5.8 mph - N/A   Clear
5:35 PM 34.3 °F 30.2 °F 26.1 °F 72% 30.22 in 10.0 mi WNW 4.6 mph - N/A   Clear
5:55 PM 34.3 °F 31.4 °F 26.6 °F 73% 30.22 in 10.0 mi NW 3.5 mph - N/A   Clear
6:15 PM 34.3 °F 30.2 °F 26.6 °F 73% 30.23 in 10.0 mi West 4.6 mph - N/A   Clear
6:35 PM 34.3 °F 29.2 °F 27.3 °F 76% 30.23 in 10.0 mi WNW 5.8 mph - N/A   Clear
6:55 PM 32.0 °F 27.5 °F 25.5 °F 77% 30.23 in 10.0 mi WNW 4.6 mph - N/A   Clear
7:15 PM 30.9 °F 26.2 °F 25.3 °F 80% 30.23 in 10.0 mi NW 4.6 mph - N/A   Clear
7:35 PM 30.9 °F 26.2 °F 25.7 °F 81% 30.24 in 10.0 mi WNW 4.6 mph - N/A   Clear
7:55 PM 32.0 °F 27.5 °F 27.1 °F 82% 30.25 in 10.0 mi West 4.6 mph - N/A   Clear
8:15 PM 29.8 °F - 25.0 °F 82% 30.25 in 10.0 mi Calm Calm - N/A   Clear
8:35 PM 29.7 °F 26.1 °F 25.3 °F 84% 30.26 in 10.0 mi WSW 3.5 mph - N/A   Clear
8:55 PM 31.3 °F 27.9 °F 26.6 °F 83% 30.26 in 10.0 mi WNW 3.5 mph - N/A   Clear
9:15 PM 29.7 °F 26.1 °F 25.3 °F 84% 30.27 in 10.0 mi WNW 3.5 mph - N/A   Clear
9:35 PM 29.7 °F - 25.7 °F 85% 30.27 in 10.0 mi Calm Calm - N/A   Clear
9:55 PM 29.7 °F - 25.9 °F 86% 30.27 in 10.0 mi Calm Calm - N/A   Clear
10:15 PM 29.7 °F - 26.4 °F 88% 30.27 in 10.0 mi Calm Calm - N/A   Clear
10:35 PM 28.0 °F - 25.3 °F 90% 30.28 in 7.0 mi Calm Calm - N/A   Clear
10:55 PM 29.7 °F - 27.0 °F 90% 30.28 in 7.0 mi Calm Calm - N/A   Clear
11:15 PM 28.0 °F - 25.2 °F 89% 30.28 in 7.0 mi Calm Calm - N/A   Clear
11:35 PM 25.7 °F 21.5 °F 23.2 °F 90% 30.29 in 5.0 mi SSW 3.5 mph - N/A   Clear
11:55 PM 27.1 °F - 25.2 °F 92% 30.29 in 5.0 mi Calm Calm - N/A   Clear